DateTimeUTC,F1_A11,F1_S11,BsB_S11,BsG_S11,BsR_S11,BbsB_S11,BbsG_S11,BbsR_S11,BaB_A11,BaG_A11,BaR_A11,Tu_S11,T_S11,Uu_S11,U_S11,P_S11,T1_A11
2021-11-04T23:00:00Z,00000200,21000000,,,,,,,-000.42,-000.24,0000.05,18.5,25.6,,00.0,0648.8,31.0
2021-11-04T23:01:00Z,00000200,21000000,,,,,,,0000.32,0000.37,-000.03,18.5,25.6,,00.0,0648.8,31.0
2021-11-04T23:02:00Z,00000200,21000000,,,,,,,-000.18,-000.29,-000.00,18.4,25.6,,00.0,0648.8,31.0
2021-11-04T23:03:00Z,00000200,61000000,,,,,,,0000.12,0000.10,0000.02,18.4,25.6,,00.0,0648.8,31.0
2021-11-04T23:04:00Z,00000200,41000000,-000.03,0000.23,0000.04,-000.24,-000.13,0000.07,0000.18,-000.28,0000.09,18.5,25.3,,00.0,0649.7,31.1
2021-11-04T23:05:00Z,00000200,01000000,-000.03,0000.15,0000.16,-000.17,0000.19,-000.05,0000.18,0000.71,0000.38,18.6,25.3,,00.0,0649.8,31.1
2021-11-04T23:06:00Z,00000200,01000000,0000.18,0000.30,0000.00,0000.53,0000.02,-000.26,-000.02,0000.29,-000.35,18.6,25.3,,00.0,0649.8,31.1
2021-11-04T23:07:00Z,00000200,01000000,0000.64,0000.33,-000.01,-000.10,0000.25,0000.11,0000.19,-000.01,0000.20,18.7,25.3,,00.0,0649.8,31.1
2021-11-04T23:08:00Z,00000200,01000000,0000.23,0000.10,-000.31,-000.03,0000.20,-000.06,-000.02,0000.22,0000.30,18.8,25.3,,00.0,0649.8,31.1
2021-11-04T23:09:00Z,00000200,01000000,-000.79,-000.10,-000.59,-000.10,0000.07,-000.13,0000.46,-000.20,0000.31,18.9,25.4,,00.0,0649.8,31.1
2021-11-04T23:10:00Z,00000200,01000000,0000.48,-000.13,0000.06,-000.05,0000.18,-000.11,0000.05,0000.17,-000.13,19.0,25.4,,00.0,0649.8,31.1
2021-11-04T23:11:00Z,00000200,01000000,0000.05,0000.05,0000.32,-000.33,0000.06,0000.18,-000.08,0000.23,0000.24,19.0,25.4,,00.0,0649.9,31.2
2021-11-04T23:12:00Z,00000200,01000000,0000.35,0000.10,0000.14,-000.19,0000.34,-000.21,0000.12,0000.14,-000.02,19.1,25.5,,00.0,0649.9,31.2
2021-11-04T23:13:00Z,00000200,01000000,0000.47,0000.48,-000.20,-000.06,-000.36,-000.39,0000.06,-000.01,0000.13,19.2,25.5,,00.0,0649.8,31.2
2021-11-04T23:14:00Z,00000200,01000000,0000.16,-000.13,0000.03,0000.46,0000.12,-000.17,0000.32,0000.18,-000.34,19.3,25.6,,00.0,0649.8,31.2
2021-11-04T23:15:00Z,00000200,01000000,-000.80,0000.17,-000.21,0000.14,0000.46,-000.36,0000.21,-000.09,0000.25,19.3,25.6,,00.0,0649.8,31.2
2021-11-04T23:16:00Z,00000200,01000000,-000.22,0000.30,-000.16,-000.15,0000.13,-000.13,-000.17,0000.19,0000.10,19.2,25.5,,00.0,0649.8,31.1
2021-11-04T23:17:00Z,00000200,01000000,-000.40,0000.12,0000.26,0000.06,-000.09,-000.15,0000.26,0000.20,0000.13,19.1,25.5,,00.0,0649.8,31.1
2021-11-04T23:18:00Z,00000200,01000000,0000.73,0000.41,-000.10,0000.14,0000.18,-000.16,-000.18,-000.11,0000.14,19.1,25.5,,00.0,0649.8,31.1
2021-11-04T23:19:00Z,00000200,01000000,0000.36,0000.04,0000.08,-000.22,0000.25,-000.05,0000.21,0000.12,-000.09,19.1,25.5,,00.0,0649.8,31.1
2021-11-04T23:20:00Z,00000200,01000000,-000.09,-000.03,-000.19,0000.13,-000.17,-000.31,-000.10,-000.09,0000.23,19.1,25.5,,00.0,0649.8,31.1
2021-11-04T23:21:00Z,00000200,01000000,0000.42,0000.20,-000.24,0000.17,0000.10,-000.02,0000.18,0000.23,0000.15,19.2,25.6,,00.0,0649.8,31.1
2021-11-04T23:22:00Z,00000200,01000000,0000.15,-000.28,0000.01,-000.39,0000.21,-000.27,0000.04,0000.00,-000.01,19.3,25.6,,00.0,0649.9,31.2
2021-11-04T23:23:00Z,00000200,01000000,0000.34,-000.04,0000.17,0000.50,-000.02,-000.09,0000.60,0000.56,0000.06,19.3,25.6,,00.0,0649.9,31.2
2021-11-04T23:24:00Z,00000200,01000000,0000.00,-000.06,-000.11,0000.59,0000.21,-000.32,-000.22,0000.03,0000.33,19.3,25.6,,00.0,0649.8,31.2
2021-11-04T23:25:00Z,00000200,01000000,0000.29,0000.13,-000.08,0000.34,0000.25,-000.52,0000.11,-000.22,0000.02,19.2,25.6,,00.0,0649.9,31.1
2021-11-04T23:26:00Z,00000200,01000000,0000.89,0000.30,-000.35,-000.12,0000.04,-000.17,0000.19,0000.20,-000.25,19.1,25.6,,00.0,0649.8,31.1
2021-11-04T23:27:00Z,00000200,01000000,0000.13,0000.20,-000.02,0000.56,0000.38,-000.36,-000.24,0000.06,-000.17,19.1,25.5,,00.0,0649.8,31.1
2021-11-04T23:28:00Z,00000200,01000000,0000.04,0000.01,0000.10,-000.30,0000.22,-000.17,-000.11,-000.31,0000.10,19.0,25.5,,00.0,0649.8,31.1
2021-11-04T23:29:00Z,00000200,01000000,-000.24,-000.10,0000.13,-000.03,-000.05,-000.21,-000.28,-000.43,-000.04,18.9,25.5,,00.0,0649.9,31.1
2021-11-04T23:30:00Z,00000200,01000000,0000.68,0000.49,-000.09,-000.15,0000.18,-000.29,0000.30,0000.31,-000.30,18.8,25.4,,00.0,0649.9,31.1
2021-11-04T23:31:00Z,00000200,01000000,0000.13,0000.10,-000.13,-000.30,0000.09,0000.13,-000.35,-000.46,0000.27,18.8,25.4,,00.0,0650.0,31.0
2021-11-04T23:32:00Z,00000200,01000000,-000.17,0000.23,-000.30,-000.01,-000.18,-000.30,-000.07,-000.12,-000.19,18.7,25.3,,00.0,0650.0,31.0
2021-11-04T23:33:00Z,00000200,01000000,-000.50,0000.12,-000.21,-000.06,0000.00,-000.45,-000.25,0000.08,-000.21,18.7,25.3,,00.0,0649.9,31.1
2021-11-04T23:34:00Z,00000200,01000000,0000.58,0000.37,-000.03,0000.27,-000.19,-000.35,0000.08,-000.33,-000.01,18.7,25.3,,00.0,0649.9,31.1
2021-11-04T23:35:00Z,00000200,01000000,0000.39,-000.36,-000.06,-000.32,0000.15,0000.10,0000.03,0000.12,0000.08,18.8,25.3,,00.0,0649.9,31.1
2021-11-04T23:36:00Z,00000200,01000000,0000.55,-000.08,-000.23,-000.16,0000.24,-000.05,0000.04,0000.26,-000.10,18.8,25.3,,00.0,0649.9,31.1
2021-11-04T23:37:00Z,00000200,01000000,0000.22,0000.03,-000.28,0000.53,0000.59,-000.34,0000.09,0000.10,0000.40,18.9,25.4,,00.0,0650.0,31.1
2021-11-04T23:38:00Z,00000200,01000000,-000.37,0000.30,0000.13,-000.04,0000.25,-000.12,-000.30,-000.02,-000.55,19.0,25.4,,00.0,0650.1,31.1
2021-11-04T23:39:00Z,00000200,01000000,-000.13,-000.08,0000.20,0000.37,0000.15,0000.17,0000.07,-000.17,0000.15,19.1,25.4,,00.0,0650.1,31.1
2021-11-04T23:40:00Z,00000200,01000000,-000.22,-000.14,-000.09,0000.28,-000.12,-000.28,-000.15,0000.02,0000.06,19.1,25.5,,00.0,0650.1,31.2
2021-11-04T23:41:00Z,00000200,01000000,-000.04,0000.36,-000.12,-000.20,0000.34,0000.17,-000.09,-000.42,-000.35,19.2,25.5,,00.0,0650.1,31.2
2021-11-04T23:42:00Z,00000200,01000000,-000.48,-000.00,-000.19,0000.27,0000.18,-000.12,-000.26,0000.49,0000.31,19.3,25.6,,00.0,0650.1,31.2
2021-11-04T23:43:00Z,00000200,01000000,0000.52,0000.46,-000.03,-000.18,-000.26,-000.20,0000.17,-000.02,0000.10,19.4,25.6,,00.0,0650.0,31.2
2021-11-04T23:44:00Z,00000200,01000000,0000.28,-000.09,-000.26,-000.05,0000.13,-000.33,-000.09,-000.28,-000.23,19.4,25.6,,00.0,0650.0,31.2
2021-11-04T23:45:00Z,00000200,01000000,0000.57,0000.01,-000.01,0000.57,-000.03,-000.28,0000.08,0000.24,-000.30,19.3,25.6,,00.0,0649.9,31.1
2021-11-04T23:46:00Z,00000200,01000000,0000.25,0000.16,-000.19,-000.18,-000.05,-000.26,0000.33,0000.14,0000.46,19.2,25.6,,00.0,0649.9,31.1
2021-11-04T23:47:00Z,00000200,01000000,-000.40,0000.01,-000.13,-000.05,0000.44,-000.13,0000.01,0000.02,0000.02,19.1,25.6,,00.0,0649.9,31.1
2021-11-04T23:48:00Z,00000200,01000000,-000.76,0000.07,0000.09,-000.04,-000.26,-000.39,0000.40,0000.28,0000.36,19.1,25.5,,00.0,0649.9,31.1
2021-11-04T23:49:00Z,00000200,01000000,0000.28,0000.22,-000.02,-000.19,-000.07,0000.15,0000.10,0000.17,0000.01,19.1,25.5,,00.0,0649.9,31.1
2021-11-04T23:50:00Z,00000200,01000000,0000.00,0000.31,-000.24,0000.19,0000.22,-000.18,0000.36,0000.02,0000.26,19.2,25.5,,00.0,0649.9,31.1
2021-11-04T23:51:00Z,00000200,01000000,-000.04,0000.14,-000.15,-000.11,0000.36,-000.01,-000.12,0000.22,0000.11,19.2,25.6,,00.0,0649.9,31.1
2021-11-04T23:52:00Z,00000200,01000000,0000.17,0000.59,-000.46,0000.31,0000.14,-000.22,0000.36,0000.22,0000.06,19.3,25.6,,00.0,0649.9,31.2
2021-11-04T23:53:00Z,00000200,01000000,0000.29,0000.09,-000.24,-000.29,0000.21,-000.06,0000.06,-000.11,0000.29,19.4,25.6,,00.0,0649.9,31.2
2021-11-04T23:54:00Z,00000200,01000000,-000.28,0000.14,-000.06,-000.09,0000.47,0000.08,-000.31,0000.01,-000.28,19.4,25.7,,00.0,0649.9,31.2
2021-11-04T23:55:00Z,00000200,01000000,0000.09,0000.12,-000.24,0000.09,0000.05,-000.27,0000.08,0000.20,0000.23,19.4,25.7,,00.0,0649.8,31.2
2021-11-04T23:56:00Z,00000200,01000000,0000.30,0000.19,0000.12,-000.25,0000.24,0000.12,-000.00,-000.06,-000.24,19.3,25.7,,00.0,0649.8,31.1
2021-11-04T23:57:00Z,00000200,41000000,,,,,,,-000.04,-000.09,0000.06,19.3,25.7,,00.0,0649.7,31.1
2021-11-04T23:58:00Z,00000200,61000000,,,,,,,0000.14,0000.12,-000.25,18.9,25.7,,00.0,0648.8,31.1
2021-11-04T23:59:00Z,00000200,21000000,,,,,,,0000.06,-000.14,0000.33,18.8,25.8,,00.0,0648.8,31.1
